Terminal Aerodrome Forecast
Issued by NWS

Current Version | Previous Version | Text Only | Print | Product List | Glossary On
Versions: 1 2 3 4 5 6 7 8 9 10 11 12 13
000
FTUS42 TJSJ 210520
TAFIST
TAF
TIST 210520Z 2106/2206 08010KT P6SM VCSH FEW030
     FM211300 10012KT P6SM FEW030 SCT070
     FM212300 08009KT P6SM VCSH SCT025 BKN060=

USA.gov is the U.S. government's official web portal to all federal, state and local government web resources and services.